Regional Weather Roundup
Issued by NWS

Home | Current Version | Previous Version | Graphics & Text | Print | Product List | Glossary On
Versions: 1 2 3 4 5 6 7 8 9 10 11 12 13 14 15 16 17 18 19 20 21 22 23 24 25 26 27 28 29 30 31 32 33 34 35 36 37 38 39 40 41 42 43 44 45 46 47 48 49 50
000
ASUS45 KTFX 311804
RWRMT
MONTANA HOURLY WEATHER ROUNDUP
NATIONAL WEATHER SERVICE GREAT FALLS MT
1104 AM MST SAT JAN 31 2015

NOTE: "FAIR" INDICATES FEW OR NO CLOUDS BELOW 12000 FEET WITH NO
SIGNIFICANT WEATHER AND/OR OBSTRUCTIONS TO VISIBILITY.

* THESE STATIONS ARE NOT UNDER NWS QUALITY CONTROL. THEY DO NOT
   REPORT WEATHER SUCH AS PRECIPITATION OR FOG.

MTZ001>007-043-311900-
WEST OF THE DIVIDE
CITY           SKY/WX    TMP DP  RH WIND       PRES   REMARKS
KALISPELL      FOG       27  25  92 W3        30.17S VSB 2
MISSOULA       SUNNY     28  25  89 CALM      30.16S
BUTTE          PTCLDY    28  18  66 CALM      30.05R
MULLAN PASS    FOG       23  19  85 NW7       30.08R VSB 1/2  WCI  15
* ANACONDA     SUNNY     30  21  69 NE6        N/A   WCI  24
* ESSEX        N/A       21  10  62 SE11G17    N/A   WCI   9
* LINCOLN      N/A       25  20  81 NE9G15     N/A   WCI  16
* LOOKOUT PASS N/A       24  24 100 NE3        N/A
* POLSON       N/A       24  23  96 NW1        N/A
* RONAN APT    PTCLDY    23  21  92 N/A        N/A
* SEELEY LAKE  N/A       19  14  81 S1         N/A
* THOMP F APT  SUNNY     25  14  63 N/A        N/A
$$

MTZ008-052>055-311900-
SOUTHWEST MONTANA
CITY           SKY/WX    TMP DP  RH WIND       PRES   REMARKS
BOZEMAN        CLOUDY    30  21  69 CALM      30.04R
DILLON         PTCLDY    30  18  61 S3        30.05F
* W YELLOWSTON PTSUNNY   11   6  80 NW1        N/A
* THREE FORKS  SUNNY     32  32 100 N/A        N/A
* BOULDER HILL N/A       23  18  81 N14G23     N/A   WCI  10
* MONIDA PASS  N/A       22  14  71 NW2        N/A
* RAYNOLDS PAS N/A       19   3  49 SE11       N/A   WCI   7
* WHITEHALL    N/A       34  21  59 N4G13      N/A
* WISE RIVER   N/A       15   8  74 NW3G8      N/A
$$

MTZ009>010-012-014-046-048-049-054-311900-
EAST SLOPES AND CENTRAL MONTANA
CITY           SKY/WX    TMP DP  RH WIND       PRES   REMARKS
CUT BANK       LGT SNOW  10   7  88 N23G29    30.28R VSB 3    WCI -10
GREAT FALLS    LGT SNOW  16  12  84 NW15G26   30.23R VSB 1    WCI   1
HELENA         LGT SNOW  27  19  72 N20       30.16R VSB 3    WCI  13
MALMSTROM AFB  LGT SNOW  16  14  92 NW15G24   30.26R VSB 2 3/4 WCI   1
* DEARBORN     N/A       22  17  81 S15G20     N/A   WCI   9
* EAST GLACIER N/A       12   6  77 E14G20     N/A   WCI  -4
* MONARCH      N/A       15  12  88 NW20       N/A   WCI  -2
* PENDROY      N/A       11   8  88 VRB23G33    N/A   WCI  -9
* ROGERS PASS  N/A       15  12  88 SW2G9      N/A
* SWEET GRASS  N/A        7   7 100 N20G27     N/A   WCI -13
$$

MTZ011-013-016-021-035-040-045-047-050-051-311900-
NORTH CENTRAL MONTANA
CITY           SKY/WX    TMP DP  RH WIND       PRES   REMARKS
HAVRE          LGT SNOW  16  12  84 NE18      30.26R VSB 1 1/4
LEWISTOWN      SNOW      25  21  85 NW16      30.08R VSB 1/2  WCI  12
* N BAR RANCH  HAZE      27  21  78 NW20G31   30.03R VSB 3    WCI  13
* CHESTER      N/A       15  10  80 NE11G21    N/A   WCI   2
* DENTON       N/A       24  22  92 NW20G30    N/A   WCI   9
* GEYSER       N/A       20  17  88 W24G31     N/A   WCI   3
* JUDITH GAP   N/A       25  24  96 VRB23G30    N/A   WCI  10
* LOMA         N/A       18  13  81 NW16G22    N/A   WCI   3
$$

MTZ017>020-022>027-061-062-311900-
NORTHEAST MONTANA
CITY           SKY/WX    TMP DP  RH WIND       PRES   REMARKS
GLASGOW        HVY SNOW  16  10  77 NE22G32   30.21R VSB M1/4 WCI  -2
GLENDIVE       CLOUDY    19  18  96 E22       30.12S WCI   2
JORDAN         PTSUNNY   25  21  85 NE14      30.11R WCI  13
SIDNEY         CLOUDY    16  10  77 NE17G23   30.25R VSB 2
WOLF POINT     SNOW      14   9  80 NE28G36   30.24R VSB 1/2  WCI  -6
* BEAVER HILL  N/A       19  17  92 E16        N/A   WCI   4
* CIRCLE       N/A       22  20  92 NE12G19    N/A   WCI  10
* LINDSAY DVD  N/A       19  17  92 NE19       N/A   WCI   3
* NAVAJO       N/A        6   3  87 E14G20     N/A   WCI -11
* SACO         N/A       15  11  84 N16G22     N/A   WCI  -1
$$

MTZ028>042-056>058-311900-
SOUTHCENTRAL AND SOUTHEAST MONTANA
CITY           SKY/WX    TMP DP  RH WIND       PRES   REMARKS
BAKER          FOG       21  19  92 E21G29    30.05R VSB 1 1/2 WCI   5
BILLINGS       PTSUNNY   30  25  82 NE22G30   30.00R WCI  17
LIVINGSTON     PTCLDY    39  12  33 W13       29.98S WCI  31
MILES CITY     CLOUDY    28  25  89 NE10      30.01R WCI  19
* LAUREL APT   PTSUNNY   36  18  48 NE5        N/A   WCI  32
* ROUNDUP APT  PTSUNNY   27  21  78 N9         N/A   WCI  18
* ALZADA       N/A       25  24  96 E12        N/A   WCI  14
* HYSHAM       N/A       25  22  88 NW5G12     N/A   WCI  19
* LAME DEER    N/A       34  21  59 W11        N/A   WCI  26
* REED POINT   N/A       37  28  70 N/A        N/A
$$

REGIONAL REPORTS...DAKOTAS
CITY           SKY/WX    TMP DP  RH WIND       PRES   REMARKS
WILLISTON      SNOW      10   5  80 NE13G23   30.31R VSB 1/2  WCI  -5
DICKINSON      LGT SNOW  18  12  77 E21G26    30.14S VSB 1 3/4 WCI   1
CROSBY         LGT SNOW   7   1  76 E14G22    30.38R VSB 1 1/2 WCI -10
WATFORD CITY   CLOUDY    10   5  80 E18G26    30.25R WCI  -8
BISMARCK       CLOUDY    14   7  73 NE21      30.29S WCI  -4
GRAND FORKS    PTSUNNY    3  -8  60 N22G29    30.46F WCI -19
FARGO          SUNNY     12   0  58 N18G25    30.37F WCI  -5
BUFFALO SD     PTSUNNY   21  19  92 E16       29.96F WCI   7
RAPID CITY     FOG       27  27 100 SE10      30.02S VSB M1/4 WCI  18
$$

REGIONAL REPORTS...WYOMING/IDAHO/WASHINGTON
CITY           SKY/WX    TMP DP  RH WIND       PRES   REMARKS
GILLETTE       PTCLDY    39  25  57 S13       29.89S WCI  31
SHERIDAN       PTCLDY    43  23  45 NW17G24   29.94R
CODY           CLOUDY    37  16  42 CALM      29.93S
YELLOWSTONE LA PTCLDY     9   3  76 E3        30.04F
SALMON         CLOUDY    27  19  72 NW3       30.23S
MULLAN PASS    FOG       23  19  85 NW7       30.08S VSB 1/2  WCI  15
SAND POINT     CLOUDY    32  28  85 S7        30.27R WCI  25
SPOKANE        CLOUDY    30  28  92 SW6       30.28R WCI  24
$$

REGIONAL REPORTS...ALBERTA
CITY           SKY/WX    TMP DP  RH WIND       PRES   REMARKS
LETHBRIDGE     LGT SNOW  10   5  80 N7        30.40R VSB 3    WCI  -1

$$



USA.gov is the U.S. government's official web portal to all federal, state and local government web resources and services.